[[{"header":{"parameterUnit":"m.s-1","parameterCategory":1,"la1":30.2992,"la2":30.254,"lo1":-89.0895,"lo2":-89.0443,"dy":0.0025,"dx":0.0025,"nx":19,"ny":19,"refTime":"2026-04-04T09:00:00:Z","depth":0,"parameterNumber":2,"parameterNumberName":"U-component_of_WINDS"},"data":[0,0,0,-1.3114,-1.3116,-1.3217,-1.3218,-1.3348,-1.3349,0,0,0,0,0,0,0,0,0,0,0,-1.3085,-1.3085,-1.3114,-1.3116,-1.3217,-1.3218,-1.3348,-1.3349,0,0,0,0,0,0,0,0,0,0,0,-1.3084,-1.3085,-1.3086,-1.3117,-1.3217,-1.3218,-1.3348,-1.3271,0,0,0,0,0,0,0,0,0,0,-1.3172,-1.3146,-1.3085,-1.3086,-1.3117,-1.3217,-1.3218,-1.3267,-1.3276,-1.3303,0,-1.3327,0,-1.334,-1.3358,-1.3358,0,0,0,-1.3116,-1.3139,-1.3166,-1.3087,-1.3118,-1.3217,-1.3172,-1.3272,-1.3282,-1.3314,-1.3329,-1.3333,-1.3342,-1.3359,-1.3359,-1.3516,-1.3517,0,0,-1.311,-1.3103,-1.3159,-1.3172,-1.3156,-1.3168,-1.3175,-1.3278,-1.3293,-1.3329,-1.3336,-1.3344,-1.336,-1.3361,-1.3516,-1.3516,0,0,0,-1.3094,-1.3099,-1.3123,-1.3167,-1.3185,-1.3171,-1.3179,-1.3289,-1.3297,-1.3338,-1.3346,-1.336,-1.3362,-1.3515,-1.3516,-1.3547,0,0,0,-1.3091,-1.309,-1.3121,-1.3118,-1.3183,-1.3238,-1.3187,-1.329,-1.3302,-1.3345,-1.3361,-1.3363,-1.3514,-1.3515,-1.3545,-1.3564,0,0,0,-1.3078,-1.3088,-1.3103,-1.3117,-1.316,-1.3237,-1.3251,-1.3293,-1.3307,-1.3359,-1.3364,-1.3513,-1.3515,-1.3542,-1.356,-1.3604,0,0,0,-1.3061,-1.3129,-1.3104,-1.3183,-1.3159,-1.3255,-1.325,-1.3322,-1.3369,-1.3361,-1.3514,-1.3516,-1.3542,-1.3558,-1.3601,-1.3641,-1.3656,0,0,-1.3143,-1.3139,-1.3186,-1.3166,-1.3264,-1.324,-1.3343,-1.3393,-1.3404,-1.3478,-1.3482,-1.3545,-1.356,-1.3603,-1.3741,-1.3754,0,0,0,-1.321,-1.3243,-1.3271,-1.3316,-1.3356,-1.3392,-1.3427,-1.3446,-1.3509,-1.3441,-1.3573,-1.3581,-1.3607,-1.3626,-1.3637,-1.366,-1.3524,-1.3524,-1.3524,-1.3317,-1.3327,-1.3406,-1.3428,-1.3472,-1.3507,-1.3544,-1.3575,-1.3573,-1.3603,-1.3626,-1.3709,-1.3731,-1.3739,-1.3763,-1.3646,-1.3646,-1.3647,-1.3647,-1.3439,-1.3489,-1.3483,-1.3558,-1.3568,-1.3631,-1.3667,-1.3663,-1.3723,-1.3692,-1.3716,-1.3683,-1.3752,-1.3773,-1.3649,-1.3649,-1.3648,-1.3648,-1.3648,-1.3511,-1.3537,-1.3558,-1.3625,-1.3675,-1.3694,-1.3752,-1.3759,-1.3766,-1.3789,-1.3814,-1.3814,-1.3815,-1.38,-1.38,-1.3801,-1.3801,-1.3801,-1.3801,-1.3579,-1.3602,-1.365,-1.3698,-1.3727,-1.3768,-1.3803,-1.3832,-1.3867,-1.3868,-1.3868,-1.3863,-1.3756,-1.373,-1.3806,-1.3805,-1.3804,-1.3804,-1.3804,-1.3703,-1.3676,-1.375,-1.378,-1.3836,-1.3885,-1.3892,-1.3952,-1.3977,-1.4006,-1.3995,-1.3914,-1.3911,-1.3902,-1.3881,-1.3992,-1.3992,-1.3992,-1.3992,-1.3765,-1.3763,-1.3841,-1.3888,-1.3935,-1.3949,-1.4033,-1.4061,-1.4085,-1.4101,-1.4086,-1.4057,-1.4048,-1.405,-1.4039,-1.4019,-1.4162,-1.4163,-1.4163,-1.3842,-1.3845,-1.3916,-1.3939,-1.3983,-1.4021,-1.41,-1.4154,-1.4176,-1.417,-1.4114,-1.4107,-1.4061,-1.4045,-1.404,-1.4022,-1.3986,0,0]},{"header":{"parameterUnit":"m.s-1","parameterCategory":1,"la1":30.2992,"la2":30.254,"lo1":-89.0895,"lo2":-89.0443,"dy":0.0025,"dx":0.0025,"nx":19,"ny":19,"refTime":"2026-04-04T09:00:00:Z","depth":0,"parameterNumber":3,"parameterNumberName":"V-component_of_WINDS"},"data":[0,0,0,-7.0062,-7.0067,-7.0316,-7.0316,-7.0641,-7.0644,0,0,0,0,0,0,0,0,0,0,0,-6.9996,-6.9999,-7.0061,-7.0068,-7.0315,-7.0317,-7.064,-7.0644,0,0,0,0,0,0,0,0,0,0,0,-6.9995,-6.9998,-7.0001,-7.0069,-7.0315,-7.0317,-7.064,-7.0449,0,0,0,0,0,0,0,0,0,0,-7.0206,-7.0155,-6.9998,-7.0002,-7.007,-7.0315,-7.0317,-7.044,-7.0461,-7.0533,0,-7.0602,0,-7.0629,-7.0667,-7.0668,0,0,0,-7.0061,-7.0138,-7.0197,-7.0002,-7.0073,-7.0315,-7.0202,-7.0451,-7.0476,-7.0561,-7.0607,-7.0619,-7.0634,-7.0669,-7.067,-7.1117,-7.112,0,0,-7.0047,-7.0045,-7.0181,-7.0213,-7.018,-7.0194,-7.021,-7.0466,-7.0514,-7.0608,-7.0626,-7.0639,-7.0671,-7.0673,-7.1115,-7.1118,0,0,0,-7.0012,-7.0035,-7.0089,-7.0201,-7.0245,-7.0201,-7.0219,-7.0503,-7.052,-7.0629,-7.0643,-7.0673,-7.0677,-7.1113,-7.1116,-7.1236,0,0,0,-7.0004,-7.0015,-7.0083,-7.0084,-7.024,-7.0378,-7.0251,-7.0503,-7.0532,-7.0642,-7.0673,-7.068,-7.111,-7.1114,-7.1227,-7.1292,0,0,0,-6.9977,-7.0012,-7.0051,-7.0083,-7.019,-7.0374,-7.0406,-7.0509,-7.0541,-7.0668,-7.0681,-7.1108,-7.1114,-7.1219,-7.1279,-7.1411,0,0,0,-6.9947,-7.0151,-7.0053,-7.0286,-7.0188,-7.0446,-7.0404,-7.0596,-7.0719,-7.0675,-7.111,-7.1116,-7.1216,-7.1271,-7.1402,-7.1522,-7.1571,0,0,-7.0203,-7.0182,-7.0319,-7.0238,-7.0514,-7.0409,-7.0701,-7.0814,-7.0826,-7.1018,-7.1029,-7.123,-7.1278,-7.1409,-7.1848,-7.1887,0,0,0,-7.0399,-7.0498,-7.0572,-7.0691,-7.0785,-7.087,-7.0939,-7.0981,-7.1145,-7.0926,-7.1312,-7.1341,-7.1417,-7.1475,-7.1508,-7.1574,-7.1142,-7.1141,-7.1141,-7.0758,-7.0766,-7.0993,-7.1031,-7.1146,-7.1217,-7.131,-7.1378,-7.1349,-7.144,-7.1498,-7.1764,-7.1831,-7.1856,-7.1925,-7.156,-7.1561,-7.1561,-7.1562,-7.1134,-7.1276,-7.1235,-7.1441,-7.1447,-7.1618,-7.1693,-7.1667,-7.1826,-7.172,-7.1788,-7.1673,-7.1899,-7.1959,-7.1571,-7.1569,-7.1568,-7.1567,-7.1566,-7.1371,-7.144,-7.149,-7.1663,-7.1795,-7.1824,-7.198,-7.1978,-7.1976,-7.2043,-7.2104,-7.2102,-7.2101,-7.2073,-7.2074,-7.2074,-7.2075,-7.2076,-7.2076,-7.1598,-7.165,-7.1783,-7.1901,-7.1977,-7.2077,-7.2149,-7.2223,-7.2304,-7.229,-7.229,-7.2253,-7.192,-7.1837,-7.2091,-7.2088,-7.2086,-7.2085,-7.2084,-7.1979,-7.1893,-7.2099,-7.2176,-7.2313,-7.2444,-7.244,-7.2591,-7.2651,-7.2728,-7.2676,-7.243,-7.2407,-7.238,-7.2312,-7.2673,-7.2673,-7.2673,-7.2673,-7.2179,-7.2168,-7.2379,-7.2503,-7.2623,-7.264,-7.287,-7.2927,-7.2972,-7.3009,-7.2956,-7.2864,-7.2837,-7.2831,-7.2794,-7.273,-7.319,-7.3191,-7.3191,-7.2414,-7.2415,-7.2614,-7.266,-7.2766,-7.2857,-7.3074,-7.3214,-7.3246,-7.3212,-7.3039,-7.3017,-7.2869,-7.282,-7.2783,-7.2727,-7.2609,0,0]}]]